#timestamp,LO_Frequency,Hit,StdDev 
1552942815.7,286047000.3,N
1552942835.5,286046999.6,N
1552942855.3,286046999.6,N
1552942875.2,286046997.8,Y
1552942895.0,286046996.2,P
1552942895.9,286046996.2,N
1552942915.8,286046993.3,P
1552942935.6,286046996.3,N
1552942955.4,286046997.4,N
1552942975.3,286046999.6,N
1552942995.1,286046996.9,N
1552943015.9,286046997.6,N
1552943035.7,286046998.0,N
1552943055.5,286046996.0,N
1552943075.4,286046993.6,Y
1552943095.2,286046996.9,P
1552943115.0,286046996.7,P
1552943115.9,286046996.7,P
1552943135.8,286046998.7,Y
1552943155.6,286047002.2,P
1552943175.5,286047004.0,N
1552943195.3,286047003.9,N
1552943215.1,286047003.6,N
1552943235.9,286047003.2,N
1552943255.7,286047004.5,N
1552943275.5,286047005.0,N
1552943295.4,286047006.9,N
1552943315.2,286047004.9,N
1552943335.1,286047004.9,N
1552943336.0,286047004.9,N
1552943355.8,286047006.7,N
1552943375.6,286047006.7,N
1552943395.5,286047004.5,N
1552943415.3,286047007.3,Y
1552943435.1,286047003.5,P
1552943455.9,286047003.1,P
1552943475.7,286047002.0,P
1552943495.6,286047000.0,N
1552943515.4,286046998.6,N
1552943535.2,286046999.3,N
1552943555.1,286046997.0,N
1552943556.0,286046997.0,N
1552943575.8,286046995.0,N
1552943595.6,286046996.9,N
1552943615.5,286046998.0,N
1552943635.3,286046996.5,N
1552943655.2,286046998.6,N
1552943675.9,286047000.0,N
1552943695.7,286046998.5,N
1552943715.6,286047001.0,N
1552943735.4,286047000.3,N
1552943755.2,286047000.6,N
1552943775.1,286046997.0,N
1552943776.0,286046997.0,N
1552943795.8,286046999.1,N
1552943815.7,286046998.4,N
1552943835.5,286046998.6,N
1552943855.3,286046998.2,N
1552943875.2,286046999.9,N
1552943895.0,286047001.1,N
1552943895.9,286047001.1,N
1552943915.8,286047001.3,N
1552943935.6,286047002.6,N
1552943955.4,286047003.3,N
1552943975.3,286047005.6,N
1552943995.1,286047002.0,N
1552944015.8,286046999.7,N
1552944035.7,286047001.8,N
1552944055.5,286047003.4,N
1552944075.3,286047002.8,N
1552944095.2,286047000.6,N
1552944115.0,286047004.4,N
1552944146.0,286047001.4,E
1552944155.9,286047002.7,N
1552944175.7,286046998.7,P
1552944195.6,286047000.7,N
1552944215.4,286046998.8,N
1552944235.2,286047000.8,N
1552944255.1,286047000.8,N
1552944256.0,286047000.8,N
1552944275.8,286046998.8,N
1552944295.6,286047000.8,N
1552944315.5,286047001.0,N
1552944335.3,286046998.9,N
1552944355.1,286046997.3,N
1552944375.9,286046997.3,N
1552944395.7,286046999.0,N
1552944415.6,286047000.7,N
1552944435.4,286047002.2,N
1552944455.2,286046999.9,N
1552944475.1,286046996.6,N
1552944476.0,286046996.6,N
1552944495.8,286046999.1,N
1552944515.6,286046999.1,N
1552944535.5,286047000.9,N
1552944555.3,286047000.2,N
1552944575.2,286047002.4,N
1552944595.9,286047002.7,N
1552944615.7,286047000.0,N
1552944635.6,286047000.6,N
1552944655.4,286046999.9,N
1552944675.2,286046998.6,N
1552944695.1,286047002.4,N
1552944696.0,286047002.4,N
1552944715.8,286046997.7,N
1552944735.7,286046995.3,N
1552944755.5,286046995.6,N
1552944775.3,286046995.2,N
1552944795.2,286046997.6,N
1552944815.0,286046997.8,N
1552944815.9,286046997.8,N
1552944835.7,286046994.9,N
1552944855.6,286046997.4,N
1552944875.4,286046997.0,N
1552944895.3,286046999.4,N
1552944915.1,286046998.7,N
1552944916.0,286046998.7,N
1552944935.8,286046996.5,N
1552944955.7,286046997.2,N
1552944975.5,286047000.7,N
1552944995.3,286047000.5,N
1552945015.2,286047001.0,N
1552945035.0,286047000.6,N
1552945035.9,286047000.6,N
1552945055.8,286047000.1,N
1552945075.6,286046999.1,N
1552945095.4,286046999.6,N
1552945115.3,286046999.3,N
1552945135.1,286046996.7,N
1552945155.8,286046998.4,N
1552945175.7,286047000.3,N
1552945195.5,286047002.4,N
1552945215.4,286047001.9,N
1552945235.2,286047001.8,N
1552945255.0,286047003.2,N
1552945255.9,286047003.2,N
1552945275.8,286047002.0,N
1552945295.6,286047001.5,N
1552945315.4,286047002.6,N
1552945335.3,286047004.0,N
1552945355.1,286047003.8,N
1552945375.9,286047001.7,N
1552945395.7,286047001.7,N
1552945415.5,286047001.7,N
1552945435.4,286047004.0,N
1552945455.2,286047001.3,N
1552945475.0,286047004.3,N
1552945475.9,286047004.3,N
1552945495.8,286047001.9,N
1552945515.6,286047001.3,N
1552945535.4,286047001.6,N
1552945555.3,286047002.6,N
1552945575.1,286047002.6,N
1552945595.9,286047000.0,N
1552945615.7,286047000.4,N
1552945635.6,286047001.1,N
1552945655.4,286046999.9,N
1552945675.2,286046999.8,N
1552945695.1,286047000.2,N
1552945696.0,286047000.2,N
1552945715.8,286047000.4,N
1552945735.6,286046998.6,N
1552945755.5,286046997.0,N
1552945775.3,286046999.5,N
1552945795.2,286047000.7,N
1552945815.9,286046998.7,N
1552945835.7,286046999.3,N
1552945855.6,286047001.2,N
1552945875.4,286046998.6,N
1552945895.2,286046998.4,N
1552945915.1,286046998.9,N
1552945916.0,286046998.9,N
1552945935.8,286046997.7,N
1552945955.7,286046997.1,N
1552945975.5,286046996.7,N
1552945995.3,286046995.1,N
1552946015.2,286046996.3,N
1552946035.0,286046996.0,N
1552946035.9,286046996.0,N
1552946055.8,286046993.5,Y
1552946075.6,286046997.3,P
1552946095.4,286046997.8,N
1552946115.3,286046995.3,P
1552946135.1,286046996.0,N
1552946155.9,286046994.6,Y
1552946175.7,286046996.4,P
1552946195.5,286046996.3,P
1552946215.4,286046995.3,P
1552946235.2,286046996.9,Y
1552946255.1,286047002.5,P
1552946256.0,286047002.5,N
1552946275.8,286046999.7,N
1552946295.6,286047000.5,N
1552946315.5,286046998.3,N
1552946335.3,286046996.9,N
1552946355.1,286046999.1,N
1552946375.9,286046998.7,N
1552946395.7,286047000.3,N
